Regional Weather Roundup
Issued by NWS Albany, NY

Home | Current Version | Previous Version | Text Only | Print | Product List | Glossary On
Versions: 1 2 3 4 5 6 7 8 9 10 11 12 13 14 15 16 17 18 19 20 21 22 23 24 25 26 27 28 29 30 31 32 33 34 35 36 37 38 39 40 41 42 43 44 45 46 47 48 49 50
000
ASUS41 KALY 260710
RWRALY

NEW YORK STATE HOURLY WEATHER ROUNDUP
NATIONAL WEATHER SERVICE ALBANY NY
300 AM EDT SUN MAR 26 2017

NOTE: "FAIR" INDICATES FEW OR NO CLOUDS BELOW 12,000 FEET WITH NO
SIGNIFICANT WEATHER AND/OR NO OBSTRUCTIONS TO VISIBILITY.

NYZ032-033-038>043-046>054-057>066-NYZ062>081-082-084-260800-
EAST


CITY           SKY/WX    TMP DP  RH WIND       PRES   REMARKS
ALBANY         CLOUDY    29  18  63 N6        30.46S WCI  23
GLENS FALLS    CLOUDY    23  18  81 N3        30.46F
POUGHKEEPSIE   CLOUDY    34  31  88 N7        30.42F WCI  28
NEWBURGH       MOCLDY    36  34  93 NE6       30.43R WCI  31
MONTGOMERY     CLOUDY    36  32  85 NE5       30.41R WCI  32
WHITE PLAINS   CLOUDY    38  32  79 E7        30.40S WCI  33
ISLIP          CLOUDY    40  36  86 NE8       30.41S WCI  34
NEW YORK CITY  CLOUDY    42  34  73 NE17      30.42R
CENTRAL PARK   LGT RAIN  40  35  83 VRB7      30.44R
$$

NYZ005>009-017-018-044>046-055-056-260800-
CENTRAL


CITY           SKY/WX    TMP DP  RH WIND       PRES   REMARKS
FULTON         MOCLDY    35  32  88 CALM      30.37R
SYRACUSE       CLOUDY    35  34  96 E12       30.35F WCI  27
ROME           PTCLDY    33  30  88 E8        30.42R WCI  26
ELMIRA         CLOUDY    37  34  89 NW3       30.32F
BINGHAMTON     CLOUDY    32  32 100 E9        30.30F FOG     WCI  24
MONTICELLO     CLOUDY    30  28  93 E9        30.37R WCI  22
$$

NYZ026>034-041>043-087-260800-
NORTH


CITY           SKY/WX    TMP DP  RH WIND       PRES   REMARKS
WATERTOWN      PTCLDY    26  25  96 E7        30.39F WCI  18
FORT DRUM      NOT AVBL
MASSENA        CLOUDY    18  16  92 NE6       30.48S WCI  10
SARANAC LAKE   CLOUDY     7   5  91 CALM      30.37S
PLATTSBURGH    CLOUDY    17  14  88 CALM      30.51R
$$

NYZ001>004-010>016-019>021-085-260800-
WEST


CITY           SKY/WX    TMP DP  RH WIND       PRES   REMARKS
NIAGARA FALLS  CLOUDY    36  32  85 E13G23    30.25F WCI  27
BUFFALO        LGT RAIN  35  32  88 E13       30.24F WCI  26
DUNKIRK        CLOUDY    41  37  86 NE12      30.18F
JAMESTOWN      PTCLDY    41  36  81 E8        30.17F
WELLSVILLE     CLOUDY    35  33  92 SE8       30.26F WCI  29
ROCHESTER      CLOUDY    35  32  88 E8        30.33F WCI  29
PENN YAN       LGT RAIN  35  32  88 CALM      30.33S FOG
$$

             KEY
       WCI = WIND CHILL INDEX
       VSB = VISIBILITY
       HX  = HEAT INDEX
$$



USA.gov is the U.S. government's official web portal to all federal, state and local government web resources and services.